Time,TemperatureF,DewpointF,PressureIn,WindDirection,WindDirectionDegrees,WindSpeedMPH,WindSpeedGustMPH,Humidity,HourlyPrecipIn,Conditions,Clouds,dailyrainin,SoftwareType,DateUTC
2013-07-02 00:01:00,64.0,57.0,29.95,NNE,23,5.0,9.0,77,0.00,,,0.11,,2013-07-02 05:01:00,
2013-07-02 00:11:00,64.0,57.0,29.96,NNE,26,5.0,8.0,79,0.00,,,0.11,,2013-07-02 05:11:00,
2013-07-02 00:22:00,63.0,57.0,29.96,NNE,26,4.0,8.0,80,0.00,,,0.11,,2013-07-02 05:22:00,
2013-07-02 00:32:00,63.0,57.0,29.96,NNE,26,4.0,8.0,80,0.00,,,0.11,,2013-07-02 05:32:00,
2013-07-02 00:43:00,63.0,57.0,29.96,NNE,26,3.0,6.0,81,0.00,,,0.11,,2013-07-02 05:43:00,
2013-07-02 00:53:00,63.0,58.0,29.96,NNE,26,3.0,6.0,83,0.01,,,0.12,,2013-07-02 05:53:00,
2013-07-02 01:01:00,63.0,58.0,29.96,NNE,26,3.0,6.0,83,0.01,,,0.12,,2013-07-02 06:01:00,
2013-07-02 01:12:00,62.0,57.0,29.95,NNE,26,2.0,5.0,83,0.01,,,0.12,,2013-07-02 06:12:00,
2013-07-02 01:23:00,62.0,57.0,29.95,NNE,26,3.0,6.0,85,0.01,,,0.12,,2013-07-02 06:23:00,
2013-07-02 01:34:00,62.0,57.0,29.95,NNE,26,3.0,6.0,85,0.01,,,0.12,,2013-07-02 06:34:00,
2013-07-02 01:43:00,62.0,58.0,29.95,NNE,26,3.0,5.0,86,0.01,,,0.12,,2013-07-02 06:43:00,
2013-07-02 01:53:00,61.0,57.0,29.95,NNE,26,3.0,5.0,87,0.00,,,0.12,,2013-07-02 06:53:00,
2013-07-02 02:01:00,61.0,57.0,29.95,NNE,26,3.0,5.0,87,0.00,,,0.12,,2013-07-02 07:01:00,
2013-07-02 02:12:00,61.0,57.0,29.95,NNE,26,3.0,4.0,88,0.00,,,0.12,,2013-07-02 07:12:00,
2013-07-02 02:22:00,61.0,57.0,29.94,NNE,26,3.0,5.0,88,0.00,,,0.12,,2013-07-02 07:22:00,
2013-07-02 02:34:00,61.0,57.0,29.94,NNE,26,3.0,5.0,88,0.00,,,0.12,,2013-07-02 07:34:00,
2013-07-02 02:44:00,61.0,57.0,29.94,NNE,26,2.0,4.0,88,0.00,,,0.12,,2013-07-02 07:44:00,
2013-07-02 02:53:00,61.0,57.0,29.94,NNE,26,2.0,5.0,87,0.00,,,0.12,,2013-07-02 07:53:00,
2013-07-02 03:02:00,61.0,57.0,29.94,NNE,26,2.0,5.0,87,0.00,,,0.12,,2013-07-02 08:02:00,
2013-07-02 03:12:00,60.0,56.0,29.93,NNE,26,3.0,5.0,87,0.00,,,0.12,,2013-07-02 08:12:00,
2013-07-02 03:22:00,60.0,56.0,29.93,NNE,26,3.0,4.0,87,0.00,,,0.12,,2013-07-02 08:22:00,
2013-07-02 03:33:00,60.0,56.0,29.93,NNE,26,3.0,4.0,87,0.00,,,0.12,,2013-07-02 08:33:00,
2013-07-02 03:44:00,60.0,56.0,29.93,NNE,26,3.0,5.0,88,0.00,,,0.12,,2013-07-02 08:44:00,
2013-07-02 03:53:00,60.0,56.0,29.93,NNE,26,3.0,5.0,88,0.00,,,0.12,,2013-07-02 08:53:00,
2013-07-02 04:02:00,60.0,56.0,29.93,NNE,26,3.0,5.0,88,0.00,,,0.12,,2013-07-02 09:02:00,
2013-07-02 04:11:00,60.0,56.0,29.93,NNE,26,3.0,5.0,87,0.00,,,0.12,,2013-07-02 09:11:00,
2013-07-02 04:23:00,60.0,56.0,29.93,NNE,26,2.0,3.0,88,0.00,,,0.12,,2013-07-02 09:23:00,
2013-07-02 04:33:00,60.0,56.0,29.93,NNE,26,2.0,3.0,88,0.00,,,0.12,,2013-07-02 09:33:00,
2013-07-02 04:43:00,61.0,57.0,29.94,NNE,26,2.0,3.0,88,0.01,,,0.13,,2013-07-02 09:43:00,
2013-07-02 04:52:00,60.0,57.0,29.94,NNE,26,0.0,3.0,89,0.01,,,0.13,,2013-07-02 09:52:00,
2013-07-02 05:01:00,60.0,57.0,29.94,NNE,26,0.0,3.0,89,0.01,,,0.13,,2013-07-02 10:01:00,
2013-07-02 05:11:00,60.0,57.0,29.95,NNE,26,0.0,1.0,90,0.01,,,0.13,,2013-07-02 10:11:00,
2013-07-02 05:22:00,60.0,57.0,29.95,NNE,26,2.0,3.0,90,0.01,,,0.13,,2013-07-02 10:22:00,
2013-07-02 05:33:00,60.0,57.0,29.95,NNE,26,2.0,3.0,90,0.01,,,0.13,,2013-07-02 10:33:00,
2013-07-02 05:44:00,60.0,57.0,29.95,NNE,26,3.0,4.0,90,0.00,,,0.13,,2013-07-02 10:44:00,
2013-07-02 05:52:00,60.0,57.0,29.95,NNE,26,2.0,4.0,89,0.00,,,0.13,,2013-07-02 10:52:00,
2013-07-02 06:01:00,60.0,57.0,29.95,NNE,26,2.0,4.0,89,0.00,,,0.13,,2013-07-02 11:01:00,
2013-07-02 06:11:00,61.0,58.0,29.95,NNE,26,2.0,4.0,89,0.00,,,0.13,,2013-07-02 11:11:00,
2013-07-02 06:22:00,61.0,57.0,29.95,NNE,26,3.0,5.0,88,0.00,,,0.13,,2013-07-02 11:22:00,
2013-07-02 06:33:00,61.0,57.0,29.95,NNE,26,3.0,5.0,88,0.00,,,0.13,,2013-07-02 11:33:00,
2013-07-02 06:42:00,61.0,57.0,29.96,NNE,26,3.0,6.0,88,0.00,,,0.13,,2013-07-02 11:42:00,
2013-07-02 06:52:00,61.0,57.0,29.95,NNE,26,3.0,6.0,87,0.00,,,0.13,,2013-07-02 11:52:00,
2013-07-02 07:01:00,61.0,57.0,29.95,NNE,26,3.0,6.0,87,0.00,,,0.13,,2013-07-02 12:01:00,
2013-07-02 07:11:00,62.0,58.0,29.96,NNE,26,5.0,8.0,86,0.00,,,0.13,,2013-07-02 12:11:00,
2013-07-02 07:23:00,62.0,58.0,29.96,NNE,26,4.0,8.0,86,0.00,,,0.13,,2013-07-02 12:23:00,
2013-07-02 07:33:00,62.0,58.0,29.96,NNE,26,4.0,8.0,86,0.00,,,0.13,,2013-07-02 12:33:00,
2013-07-02 07:43:00,62.0,58.0,29.96,NNE,27,4.0,10.0,86,0.00,,,0.13,,2013-07-02 12:43:00,
2013-07-02 07:52:00,62.0,58.0,29.96,NNE,29,5.0,9.0,86,0.00,,,0.13,,2013-07-02 12:52:00,
2013-07-02 08:01:00,62.0,58.0,29.96,NNE,29,5.0,9.0,86,0.00,,,0.13,,2013-07-02 13:01:00,
2013-07-02 08:11:00,62.0,58.0,29.96,NNE,28,6.0,12.0,87,0.00,,,0.13,,2013-07-02 13:11:00,
2013-07-02 08:22:00,62.0,58.0,29.97,NNE,28,4.0,7.0,88,0.00,,,0.13,,2013-07-02 13:22:00,
2013-07-02 08:34:00,62.0,58.0,29.97,NNE,28,4.0,7.0,88,0.00,,,0.13,,2013-07-02 13:34:00,
2013-07-02 08:43:00,62.0,59.0,29.97,NE,34,3.0,8.0,89,0.00,,,0.13,,2013-07-02 13:43:00,
2013-07-02 08:52:00,62.0,58.0,29.97,NNE,30,3.0,8.0,88,0.00,,,0.13,,2013-07-02 13:52:00,
2013-07-02 09:02:00,62.0,58.0,29.97,NNE,30,3.0,8.0,88,0.00,,,0.13,,2013-07-02 14:02:00,
2013-07-02 09:11:00,62.0,58.0,29.98,NNE,30,2.0,7.0,88,0.00,,,0.13,,2013-07-02 14:11:00,
2013-07-02 09:22:00,62.0,59.0,29.98,NNE,29,3.0,8.0,89,0.00,,,0.13,,2013-07-02 14:22:00,
2013-07-02 09:33:00,62.0,59.0,29.98,NNE,29,3.0,8.0,89,0.00,,,0.13,,2013-07-02 14:33:00,
2013-07-02 09:43:00,63.0,60.0,29.98,NNE,29,3.0,6.0,89,0.00,,,0.13,,2013-07-02 14:43:00,
2013-07-02 09:53:00,63.0,59.0,29.97,NNE,29,5.0,11.0,88,0.00,,,0.13,,2013-07-02 14:53:00,
2013-07-02 10:02:00,63.0,59.0,29.97,NNE,29,5.0,11.0,88,0.00,,,0.13,,2013-07-02 15:02:00,
2013-07-02 10:11:00,63.0,60.0,29.98,NNE,29,2.0,8.0,89,0.00,,,0.13,,2013-07-02 15:11:00,
2013-07-02 10:22:00,62.0,58.0,29.98,NE,53,2.0,5.0,88,0.00,,,0.13,,2013-07-02 15:22:00,
2013-07-02 10:33:00,62.0,58.0,29.98,NE,53,2.0,5.0,88,0.00,,,0.13,,2013-07-02 15:33:00,
2013-07-02 10:44:00,62.0,58.0,29.98,NE,53,2.0,5.0,88,0.00,,,0.13,,2013-07-02 15:44:00,
2013-07-02 10:53:00,62.0,59.0,29.98,NNE,28,6.0,10.0,89,0.00,,,0.13,,2013-07-02 15:53:00,
2013-07-02 11:01:00,62.0,59.0,29.98,NNE,28,6.0,10.0,89,0.00,,,0.13,,2013-07-02 16:01:00,
2013-07-02 11:12:00,62.0,59.0,29.99,NNE,28,3.0,8.0,90,0.00,,,0.13,,2013-07-02 16:12:00,
2013-07-02 11:22:00,62.0,59.0,29.99,NNE,28,5.0,9.0,90,0.00,,,0.13,,2013-07-02 16:22:00,
2013-07-02 11:33:00,62.0,59.0,29.99,NNE,28,5.0,9.0,90,0.00,,,0.13,,2013-07-02 16:33:00,
2013-07-02 11:43:00,61.0,59.0,29.99,NNE,17,6.0,10.0,92,0.00,,,0.13,,2013-07-02 16:43:00,
2013-07-02 11:52:00,61.0,59.0,29.99,NNE,27,7.0,11.0,93,0.00,,,0.13,,2013-07-02 16:52:00,
2013-07-02 12:02:00,61.0,59.0,29.99,NNE,27,7.0,11.0,93,0.00,,,0.13,,2013-07-02 17:02:00,
2013-07-02 12:12:00,61.0,59.0,29.98,North,5,6.0,10.0,94,0.00,,,0.13,,2013-07-02 17:12:00,
2013-07-02 12:33:00,61.0,59.0,29.99,North,11,5.0,8.0,94,0.00,,,0.13,,2013-07-02 17:33:00,
2013-07-02 12:43:00,61.0,60.0,29.99,NNE,12,4.0,7.0,95,0.00,,,0.13,,2013-07-02 17:43:00,
2013-07-02 12:53:00,62.0,61.0,29.99,NNE,17,5.0,8.0,95,0.00,,,0.13,,2013-07-02 17:53:00,
2013-07-02 13:02:00,62.0,61.0,29.99,NNE,17,5.0,8.0,95,0.00,,,0.13,,2013-07-02 18:02:00,
2013-07-02 13:12:00,62.0,61.0,29.99,NNE,24,6.0,9.0,95,0.00,,,0.13,,2013-07-02 18:12:00,
2013-07-02 13:23:00,62.0,60.0,29.99,NNE,17,5.0,8.0,94,0.00,,,0.13,,2013-07-02 18:23:00,
2013-07-02 13:34:00,62.0,60.0,29.99,NNE,17,5.0,8.0,94,0.00,,,0.13,,2013-07-02 18:34:00,
2013-07-02 13:43:00,63.0,61.0,29.98,NNE,23,4.0,8.0,93,0.00,,,0.13,,2013-07-02 18:43:00,
2013-07-02 13:53:00,63.0,61.0,29.98,NNE,26,4.0,10.0,92,0.00,,,0.13,,2013-07-02 18:53:00,
2013-07-02 14:01:00,63.0,61.0,29.98,NNE,26,4.0,10.0,92,0.00,,,0.13,,2013-07-02 19:01:00,
2013-07-02 14:12:00,64.0,61.0,29.98,NNE,26,4.0,8.0,91,0.00,,,0.13,,2013-07-02 19:12:00,
2013-07-02 14:22:00,65.0,62.0,29.98,NNE,28,4.0,7.0,89,0.00,,,0.13,,2013-07-02 19:22:00,
2013-07-02 14:34:00,65.0,62.0,29.98,NNE,28,4.0,7.0,89,0.00,,,0.13,,2013-07-02 19:34:00,
2013-07-02 14:43:00,66.0,62.0,29.97,NNE,27,3.0,9.0,88,0.00,,,0.13,,2013-07-02 19:43:00,
2013-07-02 14:53:00,66.0,62.0,29.97,NNE,27,4.0,7.0,88,0.00,,,0.13,,2013-07-02 19:53:00,
2013-07-02 15:02:00,66.0,62.0,29.97,NNE,27,4.0,7.0,88,0.00,,,0.13,,2013-07-02 20:02:00,
2013-07-02 15:11:00,66.0,62.0,29.97,NNE,27,2.0,7.0,88,0.00,,,0.13,,2013-07-02 20:11:00,
2013-07-02 15:33:00,66.0,62.0,29.97,NNE,27,3.0,7.0,87,0.00,,,0.13,,2013-07-02 20:33:00,
2013-07-02 15:43:00,66.0,62.0,29.97,NNE,18,5.0,8.0,87,0.00,,,0.13,,2013-07-02 20:43:00,
2013-07-02 16:02:00,66.0,61.0,29.97,NNE,25,7.0,10.0,85,0.00,,,0.13,,2013-07-02 21:02:00,
2013-07-02 16:11:00,66.0,62.0,29.97,NNE,26,6.0,11.0,86,0.00,,,0.13,,2013-07-02 21:11:00,
2013-07-02 16:33:00,66.0,62.0,29.97,NNE,26,5.0,9.0,87,0.00,,,0.13,,2013-07-02 21:33:00,
2013-07-02 16:44:00,66.0,62.0,29.97,NNE,28,5.0,11.0,87,0.00,,,0.13,,2013-07-02 21:44:00,
2013-07-02 17:01:00,66.0,62.0,29.97,NNE,27,6.0,11.0,87,0.00,,,0.13,,2013-07-02 22:01:00,
2013-07-02 17:11:00,65.0,61.0,29.97,NNE,26,6.0,11.0,87,0.00,,,0.13,,2013-07-02 22:11:00,
2013-07-02 17:34:00,66.0,62.0,29.96,North,5,5.0,10.0,88,0.00,,,0.13,,2013-07-02 22:34:00,
2013-07-02 17:43:00,65.0,61.0,29.96,NNE,18,6.0,11.0,88,0.00,,,0.13,,2013-07-02 22:43:00,
2013-07-02 18:01:00,65.0,62.0,29.96,North,5,7.0,12.0,89,0.00,,,0.13,,2013-07-02 23:01:00,
2013-07-02 18:11:00,65.0,62.0,29.97,NNE,28,5.0,10.0,89,0.00,,,0.13,,2013-07-02 23:11:00,
2013-07-02 18:33:00,64.0,61.0,29.97,NNE,22,7.0,10.0,89,0.00,,,0.13,,2013-07-02 23:33:00,
2013-07-02 18:44:00,64.0,61.0,29.97,North,11,5.0,8.0,89,0.00,,,0.13,,2013-07-02 23:44:00,
2013-07-02 19:01:00,64.0,61.0,29.97,North,5,7.0,14.0,89,0.00,,,0.13,,2013-07-03 00:01:00,
2013-07-02 19:11:00,64.0,61.0,29.97,North,5,4.0,9.0,89,0.00,,,0.06,,2013-07-03 00:11:00,
2013-07-02 19:33:00,64.0,61.0,29.98,NNE,14,4.0,7.0,89,0.00,,,0.06,,2013-07-03 00:33:00,
2013-07-02 19:44:00,64.0,61.0,29.98,North,5,4.0,8.0,89,0.00,,,0.06,,2013-07-03 00:44:00,
2013-07-02 19:52:00,64.0,61.0,29.98,North,5,4.0,8.0,89,0.00,,,0.06,,2013-07-03 00:52:00,
2013-07-02 20:01:00,64.0,61.0,29.98,North,9,5.0,9.0,89,0.00,,,0.06,,2013-07-03 01:01:00,
2013-07-02 20:11:00,64.0,61.0,29.98,North,9,5.0,9.0,89,0.00,,,0.06,,2013-07-03 01:11:00,
2013-07-02 20:22:00,63.0,60.0,29.98,NNE,18,4.0,7.0,89,0.00,,,0.02,,2013-07-03 01:22:00,
2013-07-02 20:33:00,63.0,60.0,29.98,NNE,18,4.0,8.0,90,0.00,,,0.02,,2013-07-03 01:33:00,
2013-07-02 20:42:00,63.0,60.0,29.98,NNE,18,4.0,8.0,90,0.00,,,0.02,,2013-07-03 01:42:00,
2013-07-02 20:59:00,63.0,60.0,29.98,NNE,18,4.0,6.0,90,0.00,,,0.02,,2013-07-03 01:59:00,
2013-07-02 21:04:00,63.0,60.0,29.98,NNE,18,4.0,6.0,90,0.00,,,0.02,,2013-07-03 02:04:00,
2013-07-02 21:14:00,63.0,60.0,29.98,NNE,18,4.0,6.0,90,0.00,,,0.02,,2013-07-03 02:14:00,
2013-07-02 21:27:00,63.0,60.0,29.98,NNE,18,4.0,6.0,90,0.00,,,0.02,,2013-07-03 02:27:00,
2013-07-02 21:39:00,62.0,60.0,29.98,North,10,4.0,7.0,92,0.00,,,0.02,,2013-07-03 02:39:00,
2013-07-02 21:59:00,62.0,60.0,29.99,North,11,4.0,6.0,92,0.00,,,0.02,,2013-07-03 02:59:00,
2013-07-02 22:13:00,62.0,60.0,30.00,North,5,3.0,7.0,93,0.00,,,0.02,,2013-07-03 03:13:00,
2013-07-02 22:25:00,62.0,60.0,30.00,North,5,3.0,7.0,93,0.00,,,0.02,,2013-07-03 03:25:00,
2013-07-02 22:35:00,62.0,60.0,30.00,North,5,4.0,7.0,93,0.00,,,0.02,,2013-07-03 03:35:00,
2013-07-02 22:47:00,62.0,60.0,30.00,North,5,3.0,5.0,93,0.00,,,0.02,,2013-07-03 03:47:00,
2013-07-02 22:56:00,62.0,60.0,30.00,North,5,3.0,5.0,93,0.00,,,0.02,,2013-07-03 03:56:00,
2013-07-02 23:01:00,62.0,60.0,30.00,North,5,4.0,6.0,93,0.00,,,0.02,,2013-07-03 04:01:00,
2013-07-02 23:11:00,62.0,60.0,30.00,North,5,1.0,6.0,93,0.00,,,0.02,,2013-07-03 04:11:00,
2013-07-02 23:22:00,62.0,60.0,30.00,North,5,1.0,6.0,93,0.00,,,0.02,,2013-07-03 04:22:00,
2013-07-02 23:33:00,62.0,60.0,29.99,North,5,2.0,3.0,93,0.00,,,0.02,,2013-07-03 04:33:00,
2013-07-02 23:43:00,62.0,60.0,29.99,North,5,1.0,5.0,93,0.00,,,0.02,,2013-07-03 04:43:00,
2013-07-02 23:52:00,62.0,60.0,29.99,North,5,1.0,5.0,93,0.00,,,0.02,,2013-07-03 04:52:00,